Time,TemperatureF,DewpointF,PressureIn,WindDirection,WindDirectionDegrees,WindSpeedMPH,WindSpeedGustMPH,Humidity,HourlyPrecipIn,Conditions,Clouds,dailyrainin,SoftwareType,DateUTC
2013-04-30 01:21:00,63.0,58.0,-100.00,SSE,160,14.0,20.0,82,-99.99,,,-99.99,,2013-04-30 06:21:00,
2013-04-30 01:32:00,63.0,58.0,-100.00,SSE,160,14.0,20.0,82,-99.99,,,-99.99,,2013-04-30 06:32:00,
2013-04-30 01:41:00,63.0,58.0,-100.00,SSE,160,14.0,20.0,82,-99.99,,,-99.99,,2013-04-30 06:41:00,
2013-04-30 01:52:00,63.0,58.0,-100.00,SSE,165,16.0,21.0,85,-99.99,,,-99.99,,2013-04-30 06:52:00,
2013-04-30 02:01:00,63.0,58.0,-100.00,SSE,165,16.0,21.0,85,-99.99,,,-99.99,,2013-04-30 07:01:00,
2013-04-30 02:11:00,63.0,58.0,-100.00,SSE,155,16.0,22.0,85,-99.99,,,-99.99,,2013-04-30 07:11:00,
2013-04-30 02:21:00,63.0,58.0,-100.00,SSE,155,19.0,24.0,86,-99.99,,,-99.99,,2013-04-30 07:21:00,
2013-04-30 02:31:00,63.0,58.0,-100.00,SSE,155,19.0,24.0,86,-99.99,,,-99.99,,2013-04-30 07:31:00,
2013-04-30 02:42:00,62.0,58.0,-100.00,SSE,150,19.0,24.0,87,-99.99,,,-99.99,,2013-04-30 07:42:00,
2013-04-30 02:52:00,62.0,58.0,-100.00,SSE,155,19.0,23.0,88,-99.99,,,-99.99,,2013-04-30 07:52:00,
2013-04-30 03:02:00,62.0,58.0,-100.00,SSE,155,19.0,23.0,88,-99.99,,,-99.99,,2013-04-30 08:02:00,
2013-04-30 03:11:00,61.0,58.0,-100.00,SSE,150,16.0,22.0,89,-99.99,,,-99.99,,2013-04-30 08:11:00,
2013-04-30 03:22:00,61.0,58.0,-100.00,SSE,160,15.0,19.0,90,-99.99,,,-99.99,,2013-04-30 08:22:00,
2013-04-30 03:32:00,61.0,58.0,-100.00,SSE,160,15.0,19.0,90,-99.99,,,-99.99,,2013-04-30 08:32:00,
2013-04-30 03:42:00,61.0,58.0,-100.00,SSE,155,10.0,15.0,90,-99.99,,,-99.99,,2013-04-30 08:42:00,
2013-04-30 03:52:00,61.0,58.0,-100.00,SSE,160,14.0,18.0,90,-99.99,,,-99.99,,2013-04-30 08:52:00,
2013-04-30 04:01:00,61.0,58.0,-100.00,SSE,160,14.0,18.0,90,-99.99,,,-99.99,,2013-04-30 09:01:00,
2013-04-30 04:11:00,61.0,58.0,-100.00,SSE,160,14.0,18.0,90,-99.99,,,-99.99,,2013-04-30 09:11:00,
2013-04-30 04:22:00,61.0,58.0,-100.00,SSE,165,15.0,19.0,91,-99.99,,,-99.99,,2013-04-30 09:22:00,
2013-04-30 04:33:00,61.0,58.0,-100.00,SSE,165,15.0,19.0,91,-99.99,,,-99.99,,2013-04-30 09:33:00,
2013-04-30 04:43:00,61.0,58.0,-100.00,SSE,165,15.0,19.0,91,-99.99,,,-99.99,,2013-04-30 09:43:00,
2013-04-30 05:22:00,60.0,58.0,-100.00,SSE,165,18.0,24.0,91,-99.99,,,-99.99,,2013-04-30 10:22:00,
2013-04-30 05:32:00,60.0,58.0,-100.00,SSE,165,18.0,24.0,91,-99.99,,,-99.99,,2013-04-30 10:32:00,
2013-04-30 05:41:00,60.0,58.0,-100.00,SSE,165,18.0,24.0,91,-99.99,,,-99.99,,2013-04-30 10:41:00,
2013-04-30 06:21:00,60.0,57.0,-100.00,South,170,16.0,21.0,91,-99.99,,,-99.99,,2013-04-30 11:21:00,
2013-04-30 06:31:00,60.0,57.0,-100.00,South,170,16.0,21.0,91,-99.99,,,-99.99,,2013-04-30 11:31:00,
2013-04-30 06:42:00,60.0,57.0,-100.00,South,170,16.0,21.0,91,-99.99,,,-99.99,,2013-04-30 11:42:00,
2013-04-30 07:21:00,60.0,57.0,-100.00,SSE,165,19.0,21.0,90,-99.99,,,-99.99,,2013-04-30 12:21:00,
2013-04-30 07:31:00,60.0,57.0,-100.00,SSE,165,19.0,21.0,90,-99.99,,,-99.99,,2013-04-30 12:31:00,
2013-04-30 07:41:00,60.0,57.0,-100.00,SSE,165,19.0,21.0,90,-99.99,,,-99.99,,2013-04-30 12:41:00,
2013-04-30 08:01:00,62.0,58.0,-100.00,South,175,18.0,21.0,87,-99.99,,,-99.99,,2013-04-30 13:01:00,
2013-04-30 08:41:00,62.0,58.0,-100.00,South,175,18.0,21.0,87,-99.99,,,-99.99,,2013-04-30 13:41:00,
2013-04-30 08:52:00,62.0,58.0,-100.00,South,175,18.0,21.0,87,-99.99,,,-99.99,,2013-04-30 13:52:00,
2013-04-30 10:21:00,71.0,62.0,-100.00,South,185,18.0,25.0,72,-99.99,,,-99.99,,2013-04-30 15:21:00,
2013-04-30 10:32:00,71.0,62.0,-100.00,South,185,18.0,25.0,72,-99.99,,,-99.99,,2013-04-30 15:32:00,
2013-04-30 10:42:00,71.0,62.0,-100.00,South,185,18.0,25.0,72,-99.99,,,-99.99,,2013-04-30 15:42:00,
2013-04-30 11:12:00,76.0,59.0,-100.00,SSW,205,21.0,28.0,56,-99.99,,,-99.99,,2013-04-30 16:12:00,
2013-04-30 11:23:00,76.0,59.0,-100.00,SSW,205,21.0,28.0,54,-99.99,,,-99.99,,2013-04-30 16:23:00,
2013-04-30 11:33:00,76.0,59.0,-100.00,SSW,205,21.0,28.0,54,-99.99,,,-99.99,,2013-04-30 16:33:00,
2013-04-30 11:42:00,76.0,59.0,-100.00,SSW,205,21.0,28.0,54,-99.99,,,-99.99,,2013-04-30 16:42:00,
2013-04-30 11:52:00,78.0,59.0,-100.00,SW,225,18.0,24.0,52,-99.99,,,-99.99,,2013-04-30 16:52:00,
2013-04-30 12:02:00,78.0,59.0,-100.00,SW,225,18.0,24.0,52,-99.99,,,-99.99,,2013-04-30 17:02:00,
2013-04-30 12:12:00,79.0,59.0,-100.00,SSW,210,20.0,24.0,51,-99.99,,,-99.99,,2013-04-30 17:12:00,
2013-04-30 12:22:00,80.0,59.0,-100.00,SSW,205,16.0,23.0,49,-99.99,,,-99.99,,2013-04-30 17:22:00,
2013-04-30 12:32:00,80.0,59.0,-100.00,SSW,205,16.0,23.0,49,-99.99,,,-99.99,,2013-04-30 17:32:00,
2013-04-30 12:42:00,80.0,59.0,-100.00,SSW,205,16.0,23.0,49,-99.99,,,-99.99,,2013-04-30 17:42:00,
2013-04-30 12:52:00,80.0,58.0,-100.00,SSW,195,19.0,26.0,46,-99.99,,,-99.99,,2013-04-30 17:52:00,
2013-04-30 13:01:00,80.0,58.0,-100.00,SSW,195,19.0,26.0,46,-99.99,,,-99.99,,2013-04-30 18:01:00,
2013-04-30 13:11:00,81.0,58.0,-100.00,South,190,21.0,26.0,45,-99.99,,,-99.99,,2013-04-30 18:11:00,
2013-04-30 13:22:00,82.0,58.0,-100.00,SSW,195,16.0,26.0,45,-99.99,,,-99.99,,2013-04-30 18:22:00,
2013-04-30 13:32:00,82.0,58.0,-100.00,SSW,195,16.0,26.0,45,-99.99,,,-99.99,,2013-04-30 18:32:00,
2013-04-30 13:42:00,83.0,58.0,-100.00,SSW,195,19.0,28.0,44,-99.99,,,-99.99,,2013-04-30 18:42:00,
2013-04-30 13:52:00,83.0,58.0,-100.00,SSW,205,21.0,29.0,43,-99.99,,,-99.99,,2013-04-30 18:52:00,
2013-04-30 14:01:00,83.0,58.0,-100.00,SSW,205,21.0,29.0,43,-99.99,,,-99.99,,2013-04-30 19:01:00,
2013-04-30 14:11:00,83.0,58.0,-100.00,South,185,23.0,26.0,43,-99.99,,,-99.99,,2013-04-30 19:11:00,
2013-04-30 14:22:00,84.0,58.0,-100.00,SSW,200,22.0,26.0,42,-99.99,,,-99.99,,2013-04-30 19:22:00,
2013-04-30 14:32:00,84.0,58.0,-100.00,SSW,200,22.0,26.0,42,-99.99,,,-99.99,,2013-04-30 19:32:00,
2013-04-30 14:42:00,84.0,58.0,-100.00,SSW,200,23.0,31.0,41,-99.99,,,-99.99,,2013-04-30 19:42:00,
2013-04-30 14:52:00,85.0,57.0,-100.00,South,185,19.0,34.0,39,-99.99,,,-99.99,,2013-04-30 19:52:00,
2013-04-30 15:02:00,85.0,57.0,-100.00,South,185,19.0,34.0,39,-99.99,,,-99.99,,2013-04-30 20:02:00,
2013-04-30 15:11:00,84.0,57.0,-100.00,SSW,195,19.0,33.0,40,-99.99,,,-99.99,,2013-04-30 20:11:00,
2013-04-30 15:21:00,85.0,57.0,-100.00,South,175,24.0,31.0,39,-99.99,,,-99.99,,2013-04-30 20:21:00,
2013-04-30 15:32:00,85.0,57.0,-100.00,South,175,24.0,31.0,39,-99.99,,,-99.99,,2013-04-30 20:32:00,
2013-04-30 15:42:00,85.0,57.0,-100.00,SSW,200,23.0,34.0,39,-99.99,,,-99.99,,2013-04-30 20:42:00,
2013-04-30 15:52:00,85.0,57.0,-100.00,South,190,23.0,29.0,39,-99.99,,,-99.99,,2013-04-30 20:52:00,
2013-04-30 16:02:00,85.0,57.0,-100.00,South,190,23.0,29.0,39,-99.99,,,-99.99,,2013-04-30 21:02:00,
2013-04-30 16:11:00,85.0,57.0,-100.00,South,175,22.0,29.0,39,-99.99,,,-99.99,,2013-04-30 21:11:00,
2013-04-30 16:22:00,85.0,57.0,-100.00,South,170,21.0,30.0,39,-99.99,,,-99.99,,2013-04-30 21:22:00,
2013-04-30 16:32:00,85.0,57.0,-100.00,South,170,21.0,30.0,39,-99.99,,,-99.99,,2013-04-30 21:32:00,
2013-04-30 16:42:00,85.0,57.0,-100.00,South,170,21.0,30.0,39,-99.99,,,-99.99,,2013-04-30 21:42:00,
2013-04-30 16:53:00,84.0,54.0,-100.00,South,185,27.0,36.0,36,-99.99,,,-99.99,,2013-04-30 21:53:00,
2013-04-30 17:02:00,84.0,54.0,-100.00,South,185,27.0,36.0,36,-99.99,,,-99.99,,2013-04-30 22:02:00,
2013-04-30 17:12:00,85.0,54.0,-100.00,South,190,25.0,34.0,35,-99.99,,,-99.99,,2013-04-30 22:12:00,
2013-04-30 17:23:00,84.0,53.0,-100.00,South,185,26.0,34.0,35,-99.99,,,-99.99,,2013-04-30 22:23:00,
2013-04-30 17:32:00,84.0,53.0,-100.00,South,185,26.0,34.0,35,-99.99,,,-99.99,,2013-04-30 22:32:00,
2013-04-30 17:41:00,84.0,53.0,-100.00,South,190,23.0,34.0,35,-99.99,,,-99.99,,2013-04-30 22:41:00,
2013-04-30 17:53:00,83.0,54.0,-100.00,South,170,26.0,30.0,38,-99.99,,,-99.99,,2013-04-30 22:53:00,
2013-04-30 18:02:00,83.0,54.0,-100.00,South,170,26.0,30.0,38,-99.99,,,-99.99,,2013-04-30 23:02:00,
2013-04-30 18:12:00,82.0,54.0,-100.00,South,180,26.0,34.0,38,-99.99,,,-99.99,,2013-04-30 23:12:00,
2013-04-30 18:22:00,82.0,53.0,-100.00,South,175,24.0,33.0,37,-99.99,,,-99.99,,2013-04-30 23:22:00,
2013-04-30 18:32:00,82.0,53.0,-100.00,South,175,24.0,33.0,37,-99.99,,,-99.99,,2013-04-30 23:32:00,
2013-04-30 18:42:00,82.0,54.0,-100.00,South,180,25.0,32.0,39,-99.99,,,-99.99,,2013-04-30 23:42:00,
2013-04-30 18:52:00,81.0,54.0,-100.00,South,180,23.0,30.0,40,-99.99,,,-99.99,,2013-04-30 23:52:00,
2013-04-30 19:02:00,81.0,54.0,-100.00,South,180,23.0,30.0,40,-99.99,,,-99.99,,2013-05-01 00:02:00,
2013-04-30 19:11:00,80.0,54.0,-100.00,South,175,25.0,31.0,41,-99.99,,,-99.99,,2013-05-01 00:11:00,
2013-04-30 19:22:00,80.0,54.0,-100.00,South,170,21.0,28.0,42,-99.99,,,-99.99,,2013-05-01 00:22:00,
2013-04-30 19:32:00,78.0,55.0,-100.00,South,170,17.0,26.0,45,-99.99,,,-99.99,,2013-05-01 00:32:00,
2013-04-30 19:42:00,78.0,55.0,-100.00,South,170,17.0,26.0,45,-99.99,,,-99.99,,2013-05-01 00:42:00,
2013-04-30 19:52:00,77.0,55.0,-100.00,SSE,165,16.0,20.0,47,-99.99,,,-99.99,,2013-05-01 00:52:00,
2013-04-30 20:01:00,77.0,55.0,-100.00,SSE,165,16.0,20.0,47,-99.99,,,-99.99,,2013-05-01 01:01:00,
2013-04-30 20:11:00,76.0,55.0,-100.00,SSE,165,16.0,24.0,49,-99.99,,,-99.99,,2013-05-01 01:11:00,
2013-04-30 20:21:00,75.0,55.0,-100.00,South,170,17.0,22.0,50,-99.99,,,-99.99,,2013-05-01 01:21:00,
2013-04-30 20:32:00,75.0,55.0,-100.00,South,170,17.0,22.0,50,-99.99,,,-99.99,,2013-05-01 01:32:00,
2013-04-30 20:42:00,74.0,55.0,-100.00,SSE,165,16.0,21.0,51,-99.99,,,-99.99,,2013-05-01 01:42:00,
2013-04-30 20:52:00,73.0,55.0,-100.00,SSE,165,14.0,17.0,52,-99.99,,,-99.99,,2013-05-01 01:52:00,
2013-04-30 21:02:00,73.0,55.0,-100.00,SSE,165,14.0,17.0,52,-99.99,,,-99.99,,2013-05-01 02:02:00,
2013-04-30 21:11:00,73.0,55.0,-100.00,SSE,160,15.0,20.0,53,-99.99,,,-99.99,,2013-05-01 02:11:00,
2013-04-30 21:21:00,72.0,55.0,-100.00,SSE,165,16.0,19.0,55,-99.99,,,-99.99,,2013-05-01 02:21:00,
2013-04-30 21:32:00,72.0,55.0,-100.00,SSE,165,16.0,19.0,55,-99.99,,,-99.99,,2013-05-01 02:32:00,
2013-04-30 21:42:00,72.0,55.0,-100.00,SSE,165,16.0,21.0,55,-99.99,,,-99.99,,2013-05-01 02:42:00,
2013-04-30 21:52:00,71.0,55.0,-100.00,SSE,160,15.0,21.0,56,-99.99,,,-99.99,,2013-05-01 02:52:00,
2013-04-30 22:02:00,71.0,55.0,-100.00,SSE,160,15.0,21.0,56,-99.99,,,-99.99,,2013-05-01 03:02:00,
2013-04-30 22:11:00,71.0,55.0,-100.00,SSE,165,15.0,20.0,57,-99.99,,,-99.99,,2013-05-01 03:11:00,
2013-04-30 22:21:00,70.0,55.0,-100.00,SSE,165,15.0,20.0,59,-99.99,,,-99.99,,2013-05-01 03:21:00,
2013-04-30 22:33:00,70.0,55.0,-100.00,SSE,165,15.0,20.0,59,-99.99,,,-99.99,,2013-05-01 03:33:00,
2013-04-30 22:43:00,69.0,56.0,-100.00,SSE,165,14.0,17.0,62,-99.99,,,-99.99,,2013-05-01 03:43:00,
2013-04-30 22:53:00,69.0,56.0,-100.00,SSE,165,14.0,19.0,63,-99.99,,,-99.99,,2013-05-01 03:53:00,
2013-04-30 23:03:00,69.0,56.0,-100.00,SSE,165,14.0,19.0,63,-99.99,,,-99.99,,2013-05-01 04:03:00,
2013-04-30 23:12:00,69.0,57.0,-100.00,SSE,165,15.0,21.0,64,-99.99,,,-99.99,,2013-05-01 04:12:00,
2013-04-30 23:22:00,69.0,57.0,-100.00,South,170,15.0,19.0,66,-99.99,,,-99.99,,2013-05-01 04:22:00,
2013-04-30 23:32:00,69.0,57.0,-100.00,South,170,15.0,19.0,66,-99.99,,,-99.99,,2013-05-01 04:32:00,
2013-04-30 23:43:00,68.0,57.0,-100.00,SSE,160,13.0,16.0,69,-99.99,,,-99.99,,2013-05-01 04:43:00,
2013-04-30 23:52:00,67.0,58.0,-100.00,SSE,160,14.0,17.0,71,-99.99,,,-99.99,,2013-05-01 04:52:00,